Dewpoint
60 57 51 54 44 45 39 38 23 30 24 17 16 20 18 21 23 22 23 22 24 25 26 37 30 33 32 28 33 34 41 45 43 36 33 39 58 65 64 65 68 69 69 69 68 69 69 70 71 70 70 70 70 70 70 70 70 70 70 70 69 68 68 68 67 67 67 67 66 65 69 69 69 70 70 69 67 66 66 65 65 64 64 65 65 65 65 64 66 67 66 64 63 64 64 64 63
56 51 49 49 46 35 35 36 27 22 21 16 18 18 17 20 21 21 22 22 25 31 41 46 48 49 50 48 47 46 39 54 38 52 55 63 65 64 64 67 68 68 69 69 68 68 69 70 71 70 70 70 70 71 70 70 70 70 70 69 69 69 68 68 68 68 67 67 66 66 68 69 70 69 69 69 68 66 66 66 65 65 65 65 65 65 64 65 66 66 66 66 65 65 65 64 64
54 50 47 46 41 37 36 33 25 20 17 12 16 16 21 20 19 21 22 22 26 44 45 45 38 39 40 41 33 34 34 58 55 57 62 65 63 64 66 68 68 68 69 69 69 68 68 69 70 71 70 70 71 70 70 70 70 70 69 69 69 68 68 68 67 67 67 67 67 67 69 69 69 69 69 68 67 67 66 65 64 64 64 64 63 64 64 64 65 65 66 66 65 65 65 65 66
53 53 45 45 39 38 30 29 24 16 17 16 13 17 20 21 20 21 22 24 35 37 31 28 33 31 40 37 40 49 53 56 60 61 61 63 60 64 67 68 68 69 69 69 69 68 68 69 70 71 71 71 71 70 70 70 70 70 69 69 69 69 69 68 67 67 67 67 66 66 68 69 69 69 69 69 68 66 65 65 64 64 64 64 64 64 63 64 64 66 66 66 66 66 66 65 65
51 53 47 41 37 33 31 26 19 20 12 15 13 17 26 27 19 24 27 28 30 28 28 29 40 44 42 44 44 41 39 57 60 61 63 63 65 67 68 68 68 68 69 69 69 68 68 69 70 71 71 70 70 71 70 70 70 69 69 69 69 68 68 68 68 67 67 66 66 66 67 69 69 69 69 68 66 66 65 65 64 64 65 65 65 64 65 66 67 67 66 67 67 66 65 65 65
45 47 47 38 28 34 21 15 15 10 15 16 15 15 19 26 23 27 27 28 28 28 28 32 37 41 45 48 48 44 50 54 59 61 62 63 67 68 68 68 68 68 69 69 69 69 68 69 69 71 70 70 70 70 70 70 70 70 69 69 69 69 69 68 68 67 67 67 66 66 69 69 70 68 68 67 66 65 65 64 64 63 64 64 64 64 64 67 67 67 68 67 67 66 66 67 67
41 37 40 34 33 33 28 16 18 17 10 17 15 18 21 26 26 27 25 24 27 26 28 30 42 39 40 43 47 51 53 56 59 58 60 63 67 68 68 68 68 68 69 69 70 70 69 69 70 71 71 70 70 70 70 70 69 69 69 69 69 69 68 68 68 67 67 67 65 66 67 69 69 69 68 67 66 65 64 64 64 64 63 63 63 64 64 64 65 66 66 67 68 66 66 66 67
46 33 36 28 28 27 20 19 19 19 14 18 19 24 26 27 27 25 24 24 24 25 31 36 30 30 31 44 44 49 52 55 57 57 61 67 68 68 68 68 67 68 68 69 70 70 70 68 70 71 71 70 70 70 70 70 70 69 69 69 69 69 68 68 68 67 67 67 66 65 67 67 68 68 67 66 66 65 64 64 63 63 64 64 64 64 64 64 64 65 66 66 66 66 66 66 66
38 37 38 30 22 26 20 15 14 19 19 21 22 29 39 28 26 25 24 24 23 24 32 35 31 23 26 42 44 48 53 55 58 59 65 67 67 68 68 67 67 68 68 69 69 70 70 68 69 71 71 71 70 70 70 70 69 69 69 69 69 69 68 68 68 67 67 67 66 66 64 66 67 67 66 66 65 65 64 64 63 63 63 63 63 63 63 64 65 65 65 65 65 65 65 66 66
33 30 26 25 28 17 17 12 12 16 18 20 25 26 29 26 25 23 22 22 22 24 26 27 28 23 32 36 44 52 54 54 58 63 66 67 67 68 67 68 67 68 68 69 69 70 69 70 68 69 70 71 71 70 70 70 70 69 69 69 69 69 68 68 67 67 67 66 66 66 65 64 65 66 65 65 65 64 64 64 63 63 63 64 64 64 64 64 65 66 65 65 65 65 65 65 65
27 35 35 26 21 13 14 11 15 19 19 19 23 24 27 25 23 21 22 22 24 23 24 32 27 39 41 41 45 50 52 56 60 62 65 67 67 67 67 68 68 68 68 69 69 70 69 69 69 68 69 69 70 71 70 70 70 69 69 69 69 69 68 68 67 67 67 66 66 65 65 65 64 64 64 64 63 63 64 63 63 63 64 63 63 63 64 64 64 65 65 65 65 65 65 65 65
23 30 33 23 18 16 18 16 16 19 23 22 23 24 27 24 21 19 21 20 22 23 24 29 26 41 38 39 41 47 51 57 58 61 64 66 66 66 66 67 68 68 68 69 69 69 69 69 69 69 68 68 68 69 69 70 70 70 70 69 68 68 68 68 67 66 66 66 66 65 65 65 65 64 64 63 63 63 63 63 63 63 63 63 63 64 64 65 65 65 65 65 65 65 65 65 64
27 33 24 20 17 21 22 16 16 33 20 20 23 23 24 20 19 18 21 22 23 23 21 25 34 32 30 38 41 47 55 57 57 60 62 65 65 64 65 67 68 68 69 69 69 69 69 69 69 68 67 66 66 67 67 68 69 69 69 69 69 69 68 68 67 66 66 66 66 65 65 66 66 64 64 63 63 64 63 62 62 64 64 64 63 63 64 64 64 64 64 65 65 64 65 65 64
33 31 25 20 25 22 18 17 19 18 18 22 21 22 23 21 20 19 21 20 22 21 20 20 37 35 34 33 33 45 53 56 57 59 61 62 63 64 66 67 67 68 68 69 69 69 69 69 69 68 67 66 67 66 65 67 68 69 69 68 68 68 68 68 67 67 67 67 67 66 66 66 66 65 64 64 64 64 63 64 64 64 65 63 63 63 64 64 64 64 64 64 64 64 64 64 64
33 37 30 25 18 16 19 15 18 21 19 20 20 22 22 25 20 22 18 18 20 20 25 33 38 26 17 26 24 45 53 57 58 58 60 61 63 64 66 67 67 67 68 68 69 69 69 69 69 68 67 67 68 67 65 66 66 67 67 67 67 68 68 67 66 66 66 66 65 65 65 64 64 64 64 64 64 64 63 62 63 64 64 63 63 63 63 64 64 64 64 64 64 64 63 63 63
37 29 26 22 17 17 15 17 22 18 17 18 19 21 22 19 20 21 21 20 22 27 26 29 32 25 27 25 38 33 53 57 58 59 60 62 63 64 66 67 67 67 67 68 68 69 69 69 69 68 68 68 68 67 66 66 65 65 66 66 67 67 66 65 65 64 63 62 62 62 61 61 61 61 60 61 62 62 61 60 62 64 63 63 63 63 63 63 63 63 64 64 63 63 62 62 62
37 34 21 19 17 15 14 18 17 14 19 18 19 19 21 18 20 20 24 24 21 23 35 37 30 50 36 31 37 50 53 57 59 59 60 62 63 64 65 65 66 66 67 67 68 68 68 69 68 68 68 68 67 67 67 67 65 64 64 64 64 64 64 64 63 60 59 59 59 59 59 60 59 59 59 59 58 58 58 59 61 63 63 62 62 62 63 63 63 63 63 62 61 60 58 58 59
31 26 25 19 22 16 20 18 17 20 16 15 19 18 18 17 19 21 21 21 25 25 31 29 43 50 54 54 52 51 55 58 59 60 60 61 62 63 63 64 65 65 65 66 67 68 68 68 68 68 68 67 67 67 67 67 66 65 65 64 64 63 62 61 61 61 61 59 59 59 59 58 58 58 58 59 58 57 58 58 60 62 62 63 62 62 62 62 62 62 61 60 59 58 55 52 53
28 25 26 22 22 20 22 19 18 15 15 16 19 18 17 17 19 20 19 19 22 22 24 27 34 36 49 52 53 55 57 58 58 59 59 60 62 62 63 64 64 65 65 65 66 67 67 68 68 68 68 67 67 67 68 67 67 67 65 64 63 62 61 61 60 60 59 59 58 58 58 58 58 57 57 57 57 57 58 58 60 61 62 62 62 62 62 61 61 60 60 58 57 55 51 51 51
29 25 19 21 26 20 20 19 18 17 18 18 18 18 17 17 19 21 19 18 22 20 20 22 27 31 43 51 52 55 57 57 58 58 58 59 61 62 63 63 64 64 65 65 65 67 67 67 67 68 68 67 67 67 68 67 67 67 66 65 63 61 60 60 60 59 59 58 58 58 58 57 57 57 58 58 58 57 55 55 56 57 58 58 58 59 60 59 59 58 57 55 53 51 50 50 50
24 20 19 20 24 19 18 19 19 20 19 19 18 17 16 17 19 18 18 18 19 20 21 20 22 27 45 52 53 55 56 57 57 57 58 58 59 61 62 63 64 65 66 66 66 66 66 67 67 67 67 67 67 67 67 67 67 67 66 65 63 61 60 59 59 59 58 58 58 58 57 57 56 56 56 56 56 54 52 51 50 51 51 51 52 50 50 51 50 49 50 50 49 49 49 49 50
23 18 21 20 23 17 18 20 23 22 21 18 17 15 15 18 18 17 18 16 16 18 19 21 21 24 51 53 54 54 56 56 57 57 57 58 58 59 60 61 62 65 66 65 65 66 66 67 67 67 67 67 67 67 67 67 67 67 66 65 63 62 60 58 58 58 58 58 58 57 57 56 56 56 55 55 54 53 51 48 47 47 48 47 48 48 48 48 48 48 48 48 48 48 48 48 48
18 17 18 21 21 15 21 23 24 18 18 17 16 17 18 17 18 17 18 16 16 20 20 21 22 36 51 53 55 55 55 56 56 57 57 57 58 59 60 61 62 64 65 65 66 66 66 66 67 67 67 67 67 67 67 67 67 67 66 65 63 62 60 59 58 58 58 57 57 57 57 56 55 55 55 54 53 51 49 47 45 45 45 45 46 47 46 47 47 47 47 47 47 47 47 47 47
18 15 18 21 23 18 23 21 23 18 17 17 17 19 17 17 15 19 17 18 18 16 20 23 24 51 53 53 54 55 56 56 56 57 58 58 58 59 60 61 62 63 65 65 66 66 65 66 66 67 67 67 67 67 67 66 67 67 66 65 63 61 60 58 58 57 57 57 57 57 57 56 55 55 54 54 52 50 48 46 44 43 43 44 45 46 46 46 46 46 46 46 46 47 47 46 46
17 16 20 20 22 22 24 23 21 21 21 22 20 17 18 18 17 19 17 16 16 16 32 34 46 51 51 53 54 54 54 55 56 56 56 56 56 56 56 58 61 64 64 65 66 66 66 66 66 66 66 66 67 67 67 67 67 67 66 65 64 61 60 59 58 57 57 57 57 57 56 56 55 54 54 53 51 49 46 45 42 42 42 43 44 45 45 45 45 46 46 45 45 45 45 45 44
20 17 22 23 22 23 23 21 22 23 22 20 17 18 20 21 21 19 19 20 22 28 40 45 48 50 50 52 53 53 53 54 55 55 56 56 54 55 57 58 61 63 64 64 65 66 66 66 66 66 66 66 67 67 67 66 67 66 66 65 65 62 61 59 57 57 57 57 57 56 56 56 55 54 53 52 50 47 46 44 42 41 41 42 43 44 44 45 45 44 44 44 44 44 44 44 44
21 23 22 21 22 25 24 19 22 23 23 22 17 18 19 21 18 14 18 20 24 31 37 44 48 49 50 50 52 53 53 53 54 55 53 53 54 55 57 56 59 62 63 64 64 65 66 66 66 66 66 66 66 66 66 66 66 66 66 66 65 63 63 60 57 57 57 57 57 56 56 55 55 54 52 51 49 47 46 43 41 40 40 41 43 43 43 44 44 44 44 44 43 43 42 42 42
23 22 21 19 21 24 22 21 21 21 19 19 18 18 20 21 20 16 16 22 24 27 34 41 43 46 49 49 51 52 52 53 52 51 54 54 55 56 57 58 58 60 62 63 64 65 65 66 66 66 66 66 66 66 66 66 66 66 66 66 66 64 64 62 58 57 57 57 57 56 56 55 54 53 52 50 48 46 46 43 40 40 40 40 41 42 42 42 43 42 42 42 41 41 40 40 40
22 20 14 17 18 20 19 21 22 23 18 23 20 17 16 21 18 20 20 20 23 23 31 35 39 41 44 47 49 50 53 52 51 53 54 55 56 56 57 58 58 58 60 62 63 64 65 65 66 66 66 66 66 66 66 66 66 66 66 66 66 65 65 63 60 57 58 58 57 56 56 56 54 53 51 50 48 46 46 42 40 40 39 39 40 41 41 41 41 40 39 39 39 39 38 37 39
21 20 17 13 17 12 19 25 23 20 20 24 17 7 10 13 18 20 21 18 22 21 21 23 31 33 35 40 46 49 50 50 51 53 55 55 55 55 56 57 57 58 59 59 61 62 64 65 65 66 66 66 66 66 66 66 66 66 66 66 65 65 65 64 62 59 58 59 56 56 56 55 55 53 51 49 47 46 46 42 40 39 39 39 39 40 40 40 40 39 38 39 40 39 37 37 37
15 17 22 18 10 9 17 22 23 18 22 22 9 10 8 11 12 14 17 24 22 20 20 21 22 25 30 33 37 43 47 50 52 53 53 54 54 55 55 55 55 56 56 56 58 60 62 64 64 65 65 66 65 66 66 66 66 66 66 66 65 65 65 65 64 62 58 60 57 56 56 55 55 53 51 48 46 47 46 42 40 39 38 38 38 39 39 39 39 39 39 39 38 37 36 37 36
19 9 12 22 9 14 19 26 21 16 21 19 14 16 12 10 12 17 21 26 23 22 21 21 22 21 22 27 30 33 37 41 46 49 51 52 53 54 54 55 55 55 56 56 57 57 60 62 64 64 65 65 66 66 66 66 66 66 66 63 65 65 65 65 65 64 60 59 59 56 56 55 55 53 51 49 46 46 46 43 40 39 37 37 38 38 39 39 38 39 39 39 37 36 36 34 33
22 14 16 17 18 17 15 23 25 25 23 22 14 13 16 16 19 19 22 24 23 23 22 23 23 23 23 22 24 26 28 29 34 39 45 49 50 53 54 54 54 55 55 56 56 57 58 59 61 63 64 65 65 66 66 66 66 66 66 65 65 65 65 65 65 65 63 60 61 58 56 55 55 53 51 49 46 45 46 44 41 39 37 37 37 38 38 39 38 39 38 39 39 36 35 32 32
17 22 16 24 16 16 12 19 23 26 22 20 21 17 17 15 17 19 21 22 22 21 21 21 22 23 24 25 24 23 24 26 26 28 32 41 46 48 51 52 53 54 55 55 56 57 57 58 60 62 63 64 65 65 65 66 66 66 66 66 63 64 64 65 65 65 64 63 62 61 58 56 55 54 52 49 46 45 46 45 42 38 37 37 37 37 38 38 39 39 38 38 38 36 34 33 31
17 18 16 16 16 16 12 18 19 22 22 20 21 21 20 20 21 21 22 22 23 21 21 21 21 21 22 23 24 24 24 24 24 26 28 31 38 43 45 48 51 51 53 55 55 56 57 57 58 59 61 63 64 65 64 65 65 65 65 65 65 65 64 64 65 65 64 64 62 62 60 58 55 56 53 50 47 45 45 46 42 38 36 37 37 37 37 37 38 39 38 37 37 36 35 33 31
17 19 16 19 17 17 15 18 20 23 21 20 20 20 19 20 20 21 22 21 21 20 20 20 20 20 20 21 22 24 25 25 26 28 30 30 31 35 39 43 46 49 51 53 54 55 56 56 57 58 60 62 63 64 64 63 63 63 63 63 63 63 64 63 64 64 64 64 63 62 62 59 57 56 55 52 49 46 45 46 42 39 37 36 37 37 37 37 37 38 38 36 34 32 31 31 30
19 22 20 18 19 18 18 19 20 24 22 21 21 21 21 21 21 21 22 22 22 21 21 21 21 21 20 20 20 22 23 23 28 31 31 31 32 32 33 37 42 47 49 52 53 55 56 57 56 57 58 60 61 62 63 63 62 61 62 62 62 63 63 63 63 64 64 64 64 63 62 62 59 57 56 53 51 48 46 46 43 39 37 37 37 37 37 37 38 38 37 36 33 31 29 30 30
18 19 18 17 19 14 17 20 22 25 21 20 24 24 23 22 21 21 21 21 21 20 20 20 20 20 21 21 21 22 22 27 29 28 28 31 33 34 35 35 41 44 47 50 52 54 55 56 56 57 57 59 60 62 62 62 63 62 62 62 62 62 62 62 62 63 64 63 64 64 63 62 61 59 57 55 53 50 48 47 44 40 38 37 37 37 37 37 38 38 36 35 34 33 31 29 30
22 18 19 18 18 21 20 22 23 25 20 18 24 24 23 23 24 24 24 23 22 22 22 21 21 21 22 22 22 22 23 23 24 24 27 28 31 34 36 37 39 42 44 49 51 52 54 55 56 56 57 58 59 60 61 61 62 62 62 60 62 60 60 61 62 61 61 62 62 63 63 63 62 61 59 57 55 53 50 48 45 42 39 39 38 37 37 38 38 38 36 36 33 33 32 31 29
20 18 17 15 22 18 16 18 23 24 21 23 25 23 22 21 22 23 24 23 23 25 25 25 25 23 23 22 22 22 22 23 23 22 22 23 27 29 34 38 39 43 45 47 50 52 53 54 55 56 56 57 58 59 58 60 60 58 57 56 58 61 59 58 60 57 60 61 61 61 62 62 63 62 60 59 58 56 53 50 47 44 41 40 39 37 36 37 37 37 36 36 35 35 31 29 30
22 23 23 23 22 22 18 16 21 21 22 25 18 16 11 18 14 16 18 19 21 25 26 26 28 29 27 29 29 29 25 23 24 24 24 25 26 26 31 35 39 43 45 47 49 51 53 54 55 55 56 56 57 56 57 56 55 54 53 53 54 54 55 56 58 57 58 57 58 60 61 61 61 62 61 60 58 58 56 54 52 48 46 46 41 39 37 37 36 36 35 36 38 41 38 37 33
19 23 24 22 25 23 24 22 22 16 16 17 14 6 15 18 17 16 15 14 12 14 15 14 14 16 25 28 28 30 31 30 27 25 25 26 27 28 31 36 40 43 45 46 49 51 51 52 53 54 54 54 55 55 56 56 56 56 55 56 55 55 56 56 57 58 57 57 58 58 57 59 61 62 61 61 59 58 57 55 53 51 49 48 46 47 44 45 43 39 36 38 39 41 40 39 37
18 18 24 22 24 24 23 18 17 11 4 12 21 6 11 14 13 10 14 19 17 17 20 19 19 20 19 21 24 26 28 29 30 29 29 29 29 31 33 36 40 42 44 44 46 49 50 51 52 53 54 53 53 53 54 55 56 56 56 57 58 57 57 58 58 59 59 59 58 58 58 58 58 59 61 61 60 58 57 56 54 51 50 49 46 47 46 43 40 38 37 38 38 39 40 38 34
17 23 25 26 24 24 22 20 17 16 21 23 23 14 8 12 9 13 22 21 18 15 13 14 13 15 18 20 22 24 27 28 30 30 30 31 31 31 31 34 39 41 42 44 46 48 50 51 51 52 52 52 52 52 53 55 56 55 55 55 56 56 56 56 55 56 56 56 57 57 57 57 57 58 58 58 60 59 57 56 55 52 50 48 45 44 43 41 39 39 38 38 39 40 39 37 36
21 27 27 25 24 25 24 23 22 23 12 15 18 23 9 14 16 18 19 13 12 11 10 11 12 15 17 20 20 21 25 28 30 31 32 32 33 35 36 37 39 41 43 45 46 48 48 49 50 49 50 50 50 51 52 53 54 55 55 55 54 54 54 52 48 49 51 52 56 56 56 56 56 56 57 57 57 58 57 57 56 54 52 50 46 45 44 42 40 39 37 37 37 38 37 37 36
29 29 28 27 26 25 24 22 19 15 9 14 15 18 4 11 16 12 14 14 15 14 13 13 15 17 21 23 25 24 25 26 27 29 31 32 35 37 38 39 40 40 41 42 43 44 46 47 48 49 49 50 49 50 51 52 53 52 53 53 54 54 49 46 46 48 49 49 53 54 55 55 55 55 55 55 56 56 57 56 56 55 53 52 48 49 47 45 42 39 38 36 36 36 36 36 38
31 28 25 23 22 23 23 19 13 11 5 16 20 21 7 6 14 9 8 10 8 11 16 19 19 21 23 26 32 34 35 35 34 35 36 35 35 36 37 40 40 41 40 42 43 44 45 47 47 49 48 48 47 49 50 51 51 51 53 53 53 52 50 49 47 46 46 46 51 53 54 55 55 55 55 54 54 55 55 54 55 55 54 51 49 49 48 47 45 43 41 39 39 39 38 36 37
28 24 22 18 17 18 17 15 18 5 7 13 15 18 10 6 10 16 14 13 15 14 15 14 17 19 23 26 33 36 35 35 35 34 36 36 38 38 38 40 40 40 41 41 41 42 44 45 46 47 45 46 46 48 48 49 50 50 50 51 51 51 50 49 49 49 47 48 49 51 51 52 53 53 54 54 54 53 53 54 53 54 53 53 51 50 49 47 46 44 41 39 37 37 36 37 38
24 21 18 17 8 13 10 10 5 7 8 15 19 22 10 13 10 11 12 13 15 17 16 16 18 19 23 25 27 31 34 35 34 34 34 36 37 37 38 39 39 40 41 41 41 41 42 43 45 47 46 45 46 46 48 48 48 49 50 50 50 50 49 49 49 49 48 48 48 48 48 49 50 51 52 53 54 53 53 53 53 53 53 53 52 51 50 49 49 48 45 42 39 38 37 37 37
21 19 17 11 3 -0 -4 -0 0 4 9 16 19 21 13 13 13 17 14 13 16 16 18 20 21 21 24 25 26 28 31 34 35 34 33 33 34 35 36 37 38 39 39 40 40 41 42 42 43 45 45 44 44 44 46 46 47 48 48 49 50 49 49 49 49 49 48 48 48 47 47 48 48 50 51 52 53 54 54 54 53 53 53 53 52 52 51 50 49 48 46 44 42 39 39 39 39
21 24 17 17 10 4 -3 -4 -4 5 11 12 16 6 12 4 2 17 18 19 21 22 22 23 24 25 26 28 29 29 30 34 34 34 35 35 35 35 36 36 37 37 38 39 39 40 40 42 43 43 43 43 44 44 44 46 47 47 47 48 48 48 49 48 49 48 48 48 47 47 47 47 47 47 48 49 49 51 52 53 53 53 53 52 52 51 51 50 49 48 47 45 43 41 39 38 38
26 24 19 10 11 16 -4 6 2 1 4 3 12 11 18 14 17 21 21 22 20 22 22 25 24 25 24 23 24 27 30 32 36 35 36 35 35 35 35 35 36 37 37 38 39 40 41 42 42 43 44 43 44 44 45 45 46 46 45 46 47 47 46 47 47 46 47 47 47 47 47 46 47 47 46 45 46 47 49 50 51 51 52 52 51 51 51 50 49 48 48 46 44 43 41 41 39
22 20 15 22 22 16 11 6 8 7 7 6 8 16 17 15 5 10 14 14 14 18 18 19 22 23 22 22 24 24 27 30 34 36 36 36 35 35 35 35 36 36 37 38 40 40 41 41 41 41 41 41 42 43 44 44 44 44 45 45 45 46 46 47 48 47 46 46 46 46 46 46 46 45 45 45 45 45 47 48 48 49 49 50 50 49 50 50 49 48 47 46 45 43 41 40 40
23 18 22 24 24 21 11 3 4 -1 -0 7 7 8 8 2 7 17 12 14 15 17 17 18 20 22 21 24 25 26 27 28 32 35 36 36 36 36 35 35 36 37 37 38 38 39 40 40 41 41 41 42 42 42 43 43 44 44 44 44 45 46 46 47 47 46 45 45 45 45 45 45 45 45 45 44 45 45 45 45 47 47 47 48 48 48 48 49 49 49 47 47 46 44 42 40 39
26 24 27 19 13 8 14 9 -1 1 -1 4 9 10 12 11 8 13 7 13 13 14 16 16 16 18 21 23 22 24 27 29 31 33 34 36 35 36 36 36 36 36 36 37 38 38 39 40 40 40 42 42 42 42 42 42 43 44 44 44 44 45 45 45 45 45 43 45 45 45 45 46 44 43 43 44 43 44 44 44 45 45 46 46 47 47 48 49 49 48 48 47 46 45 44 42 41
28 25 21 27 21 16 8 11 10 10 -1 -7 9 2 4 15 13 14 6 9 16 15 15 15 16 17 20 22 23 25 27 28 30 32 33 34 35 36 36 36 36 37 36 36 37 38 39 39 40 40 39 39 39 41 41 42 42 42 43 42 42 43 43 44 45 44 45 45 46 45 45 44 45 44 44 43 43 43 43 43 43 44 44 45 46 46 47 48 48 48 47 46 46 45 44 43 42
22 21 20 24 21 22 21 13 13 7 0 0 -1 4 10 16 17 15 10 7 12 16 17 19 20 21 21 21 22 24 24 28 30 32 32 34 35 35 35 35 35 35 34 35 36 37 38 38 39 39 40 41 41 41 41 42 41 41 41 42 42 42 42 43 43 43 44 45 45 44 45 45 41 43 42 42 42 43 42 43 43 43 43 44 45 46 47 48 47 47 47 47 45 44 43 44 43
24 22 20 23 21 14 9 14 17 3 3 1 -4 6 11 19 19 15 13 10 11 16 18 19 19 19 20 22 22 22 25 28 30 32 33 35 34 35 34 33 33 34 35 36 35 36 36 37 38 38 39 41 41 41 41 40 40 41 41 41 41 41 42 41 42 42 43 44 43 43 43 40 42 43 41 42 42 42 42 42 42 43 43 43 44 45 46 46 46 46 46 46 46 44 43 43 42